User: anonymous   Login
Location: George Washington National Forest Helicopter Landing Site
(38.6463°N, 79.0851°W)
Time: 00:27:17
(UTC-04:00)
Language:

deb Explorer IX - Orbit

View from above orbital plane
View from above orbital plane
View from above satellite
View from above satellite

Ground track
Ground track

The orbit data is extracted from the following two-line orbital elements,

1    85U 61004C   19232.76968221  .00001816  00000-0  39839-3 0  9993
2    85  38.7759 118.7990 0396576 289.9136  65.9304 14.19987947888171
Epoch (UTC): 20 August 2019 18:28:20
Eccentricity: 0.0396576
inclination: 38.7759°
perigee height: 540 km
apogee height: 1111 km
right ascension of ascending node: 118.7990°
argument of perigee: 289.9136°
revolutions per day: 14.19987947
mean anomaly at epoch: 65.9304°
orbit number at epoch: 88817

The dashed part of the orbit path shows where the satellite is in the earth's shadow,  

DLR